Preview of NWS' New Version of Forecast
This preview is not operational and should not be used for support decisions.

Regional Weather Roundup (RWR)

Issued by National Weather Service (NWS)

                            
000
ASUS43 KLSX 210707
RWRMO 

WEATHER SUMMARY FOR MISSOURI
NATIONAL WEATHER SERVICE SPRINGFIELD MO
200 AM CDT SUN JUL 21 2019

NOTE: "FAIR" INDICATES FEW OR NO CLOUDS BELOW 12,000 FEET WITH NO
       SIGNIFICANT WEATHER AND/OR OBSTRUCTIONS TO VISIBILITY.
       CURRENT SKY AND/OR WEATHER CONDITIONS ARE NOT AVAILABLE FOR
       CHILLICOTHE AND FARMINGTON.

MOZ001>031-035>038-043-044-053-054-210800-
...NORTHERN AND WESTERN MISSOURI...
  
CITY           SKY/WX    TMP DP  RH WIND       PRES   REMARKS
KANSAS CTY INT TSTM      72  69  90 SE20G33   29.95S FOG              
KANSAS C DTWN  CLOUDY    75  67  76 VRB6G25   29.98R                  
LEE'S SUMMIT   TSTM      70  68  93 E13G22    30.01R FOG              
ST JOSEPH      TSTM      72  68  87 NE13G31   30.00R                  
CHILLICOTHE      N/A     72  69  90 S8G22     29.94F                  
KIRKSVILLE     CLEAR     73  67  81 S15G26    29.90F                  
     
$$
MOZ066>068-077>081-088>096-101>105-210800-
...SOUTHWEST MISSOURI...
  
CITY           SKY/WX    TMP DP  RH WIND       PRES   REMARKS
SPRINGFIELD    CLEAR     77  71  82 S7        29.96F                  
JOPLIN         CLEAR     78  72  81 S8        29.96R                  
BRANSON        CLEAR     75  72  88 CALM      30.01R                  
               
$$
MOZ032>034-039>042-045>050-055>058-069>072-210800-
...CENTRAL MISSOURI...  
  
CITY           SKY/WX    TMP DP  RH WIND       PRES   REMARKS
COLUMBIA       PTCLDY    73  69  87 NE7       29.98F                  
ROLLA          PTCLDY    77  70  79 N10       29.99R                  
SEDALIA        CLOUDY    68  68 100 E6        30.01F                  
WHITEMAN AFB   LGT RAIN  71  70  97 NE8       29.95F                  
WARRENSBURG    RAIN      70  68  94 NW8       30.01R                  
OSAGE BEACH    CLOUDY    76  69  79 CALM      30.00S                  
               
$$
MOZ051-052-059>065-210800-
...EAST CENTRAL MISSOURI...
  
CITY           SKY/WX    TMP DP  RH WIND       PRES   REMARKS
ST LOUIS INTL  MOCLDY    84  74  71 W13       29.92F HX  91           
SPIRIT OF STL  MOCLDY    82  76  81 W5        29.92S                  
ST CHARLES       N/A    N/A N/A N/A MISG      29.90F                  
                   
$$
MOZ072>076-082>087-097>100-106>115-210800-
...SOUTH CENTRAL AND SOUTHEAST MISSOURI...
  
CITY           SKY/WX    TMP DP  RH WIND       PRES   REMARKS
CAPE GIRARDEAU FAIR      80  75  84 S6        29.92F                  
FARMINGTON     CLEAR     76  75  97 CALM      29.96S                  
POPLAR BLUFF   FAIR      79  78  97 S5        29.94S                  
WEST PLAINS    CLEAR     77  73  87 W3        29.99F                  
                                       
$$